DLH2PM EDDM-ESSA

Flight info

Callsign DLH2PM
Flight time N/A
Altitude 37000
Route AKINI1S AKINI Y104 MAMOR L132 AGNAV DCT SUPIL DCT KILNU DCT UNRIG DCT BODLA DCT DEMUR DCT ARMOD Z228 NILUG
Aircraft A321/M-SDE3FGHIRWY/LB1

Departure

Time 2026-05-06 18:08
Airport Munich Airport (EDDM)

Arrival

Time N/A
Airport Stockholm-Arlanda Airport (ESSA)
Time Latitude Longitude Altitude Speed Heading
2026-05-06 17:39 48.35582 11.79722 1486 ft 0 kts 83°
2026-05-06 17:56 48.35579 11.79694 1470 ft 4 kts 76°
2026-05-06 17:57 48.35571 11.79656 1474 ft 4 kts 64°
2026-05-06 17:57 48.35557 11.79622 1471 ft 4 kts 49°
2026-05-06 17:57 48.35538 11.79595 1481 ft 4 kts 29°
2026-05-06 17:57 48.35513 11.79582 1482 ft 4 kts 359°
2026-05-06 17:58 48.35506 11.79582 1481 ft 0 kts 352°
2026-05-06 18:00 48.35509 11.79582 1485 ft 3 kts 352°
2026-05-06 18:01 48.35562 11.79570 1485 ft 12 kts 352°
2026-05-06 18:01 48.35677 11.79549 1483 ft 21 kts 353°
2026-05-06 18:01 48.35829 11.79524 1485 ft 19 kts 353°
2026-05-06 18:01 48.35952 11.79504 1485 ft 16 kts 354°
2026-05-06 18:02 48.36023 11.79492 1476 ft 10 kts 353°
2026-05-06 18:02 48.36042 11.79489 1482 ft 0 kts 353°
2026-05-06 18:02 48.36046 11.79488 1483 ft 0 kts 353°
2026-05-06 18:03 48.36084 11.79482 1481 ft 12 kts 353°
2026-05-06 18:03 48.36196 11.79497 1479 ft 18 kts 40°
2026-05-06 18:03 48.36228 11.79660 1485 ft 17 kts 85°
2026-05-06 18:03 48.36242 11.79846 1482 ft 21 kts 83°
2026-05-06 18:04 48.36263 11.80099 1485 ft 29 kts 83°
2026-05-06 18:04 48.36280 11.80320 1476 ft 33 kts 83°
2026-05-06 18:04 48.36315 11.80781 1478 ft 34 kts 83°
2026-05-06 18:04 48.36342 11.81135 1480 ft 34 kts 83°
2026-05-06 18:05 48.36369 11.81493 1478 ft 35 kts 83°
2026-05-06 18:05 48.36395 11.81834 1475 ft 26 kts 84°
2026-05-06 18:05 48.36439 11.81997 1472 ft 17 kts 17°
2026-05-06 18:05 48.36481 11.81996 1482 ft 0 kts 354°
2026-05-06 18:06 48.36496 11.81993 1485 ft 5 kts 354°
2026-05-06 18:06 48.36537 11.81987 1481 ft 6 kts 354°
2026-05-06 18:07 48.36597 11.81977 1485 ft 14 kts 353°
2026-05-06 18:07 48.36666 11.81848 1482 ft 15 kts 268°
2026-05-06 18:07 48.36664 11.81811 1477 ft 6 kts 264°
2026-05-06 18:07 48.36638 11.81460 1474 ft 70 kts 263°
2026-05-06 18:08 48.36554 11.80398 1483 ft 132 kts 263°
2026-05-06 18:08 48.36432 11.78807 1581 ft 172 kts 263°
2026-05-06 18:08 48.36269 11.76973 2220 ft 178 kts 263°
2026-05-06 18:08 48.36125 11.75132 3015 ft 179 kts 263°
2026-05-06 18:09 48.35980 11.73190 3339 ft 196 kts 263°
2026-05-06 18:09 48.35824 11.71094 3841 ft 206 kts 263°
2026-05-06 18:09 48.35889 11.68933 4583 ft 211 kts 283°
2026-05-06 18:09 48.36587 11.66956 5327 ft 219 kts 307°
2026-05-06 18:10 48.37843 11.65581 6070 ft 233 kts 332°
2026-05-06 18:10 48.39466 11.64964 6598 ft 251 kts 342°
2026-05-06 18:10 48.41253 11.64411 6916 ft 271 kts 343°
2026-05-06 18:10 48.43137 11.63847 7512 ft 280 kts 343°
2026-05-06 18:11 48.45115 11.63598 8172 ft 292 kts 360°
2026-05-06 18:11 48.47112 11.64242 8838 ft 304 kts 18°
2026-05-06 18:11 48.48971 11.65832 9529 ft 312 kts 39°
2026-05-06 18:11 48.50432 11.68236 10306 ft 310 kts 54°
2026-05-06 18:12 48.51707 11.70882 10971 ft 312 kts 54°
2026-05-06 18:12 48.52986 11.73540 11663 ft 314 kts 54°
2026-05-06 18:12 48.54278 11.76226 12320 ft 318 kts 55°
2026-05-06 18:12 48.55591 11.78951 12915 ft 323 kts 55°
2026-05-06 18:13 48.56909 11.81679 13552 ft 327 kts 55°
2026-05-06 18:13 48.58332 11.84420 13907 ft 341 kts 45°
2026-05-06 18:13 48.60300 11.86581 14044 ft 360 kts 31°
2026-05-06 18:13 48.62498 11.88580 14157 ft 378 kts 31°
2026-05-06 18:14 48.64811 11.90666 14323 ft 393 kts 30°
2026-05-06 18:14 48.67184 11.92803 14742 ft 400 kts 30°
2026-05-06 18:14 48.69580 11.94966 15296 ft 402 kts 30°
2026-05-06 18:14 48.71985 11.97142 15893 ft 404 kts 30°
2026-05-06 18:15 48.74374 11.99316 16404 ft 407 kts 31°
2026-05-06 18:15 48.76812 12.01547 16913 ft 411 kts 31°
2026-05-06 18:15 48.79273 12.03800 17405 ft 415 kts 31°
2026-05-06 18:15 48.81757 12.06073 17889 ft 419 kts 31°
2026-05-06 18:16 48.84262 12.08367 18313 ft 422 kts 31°
2026-05-06 18:16 48.86786 12.10683 18727 ft 425 kts 31°
2026-05-06 18:16 48.89329 12.13021 19141 ft 428 kts 30°
2026-05-06 18:16 48.91885 12.15377 19556 ft 431 kts 30°
2026-05-06 18:17 48.94461 12.17756 19976 ft 435 kts 31°
2026-05-06 18:17 48.97058 12.20150 20363 ft 438 kts 30°
2026-05-06 18:17 48.99639 12.22528 20762 ft 440 kts 30°
2026-05-06 18:17 49.02267 12.24950 21157 ft 443 kts 30°
2026-05-06 18:18 49.04913 12.27396 21561 ft 446 kts 30°
2026-05-06 18:18 49.07579 12.29869 21952 ft 449 kts 31°
2026-05-06 18:18 49.10254 12.32360 22399 ft 451 kts 30°
2026-05-06 18:18 49.12941 12.34858 22852 ft 453 kts 30°
2026-05-06 18:19 49.15640 12.37365 23256 ft 455 kts 30°
2026-05-06 18:19 49.18356 12.39887 23592 ft 458 kts 30°
2026-05-06 18:19 49.21085 12.42427 23912 ft 461 kts 30°
2026-05-06 18:19 49.23832 12.44987 24222 ft 464 kts 30°
2026-05-06 18:20 49.26603 12.47573 24538 ft 467 kts 31°
2026-05-06 18:20 49.29378 12.50176 24859 ft 469 kts 31°
2026-05-06 18:20 49.32235 12.52651 25157 ft 471 kts 24°
2026-05-06 18:20 49.35244 12.54483 25443 ft 472 kts 15°
2026-05-06 18:21 49.38437 12.55680 25737 ft 473 kts
2026-05-06 18:21 49.41680 12.56678 26040 ft 476 kts
2026-05-06 18:21 49.44940 12.57690 26339 ft 479 kts
2026-05-06 18:21 49.48216 12.58721 26639 ft 482 kts
2026-05-06 18:22 49.51507 12.59764 26938 ft 484 kts
2026-05-06 18:22 49.54814 12.60831 27247 ft 487 kts 11°
2026-05-06 18:22 49.58085 12.62299 27523 ft 491 kts 15°
2026-05-06 18:22 49.61352 12.63914 27810 ft 494 kts 15°
2026-05-06 18:23 49.64627 12.65549 28083 ft 496 kts 16°
2026-05-06 18:23 49.67899 12.67186 28338 ft 498 kts 16°
2026-05-06 18:23 49.71159 12.68819 28585 ft 501 kts 16°
2026-05-06 18:23 49.74453 12.70475 28846 ft 502 kts 16°
2026-05-06 18:24 49.77776 12.72156 29128 ft 502 kts 16°
2026-05-06 18:24 49.81100 12.73844 29486 ft 502 kts 16°
2026-05-06 18:24 49.84415 12.75533 29820 ft 501 kts 16°
2026-05-06 18:24 49.87730 12.77231 30109 ft 501 kts 16°
2026-05-06 18:25 49.91046 12.78903 30379 ft 500 kts 12°
2026-05-06 18:25 49.94443 12.79874 30660 ft 496 kts
2026-05-06 18:25 49.97858 12.80595 30974 ft 494 kts
2026-05-06 18:25 50.01267 12.81314 31280 ft 493 kts
2026-05-06 18:26 50.04661 12.82027 31557 ft 492 kts
2026-05-06 18:26 50.08059 12.82737 31840 ft 492 kts
2026-05-06 18:26 50.11407 12.83440 32106 ft 492 kts
2026-05-06 18:26 50.14796 12.84155 32366 ft 491 kts
2026-05-06 18:27 50.18185 12.84869 32647 ft 491 kts
2026-05-06 18:27 50.21569 12.85586 32986 ft 489 kts
2026-05-06 18:27 50.24932 12.86299 33277 ft 488 kts
2026-05-06 18:27 50.28293 12.87011 33566 ft 487 kts
2026-05-06 18:28 50.31661 12.87726 33819 ft 487 kts
2026-05-06 18:28 50.35018 12.88441 34033 ft 487 kts
2026-05-06 18:28 50.38330 12.89150 34242 ft 487 kts
2026-05-06 18:28 50.41684 12.89870 34443 ft 487 kts
2026-05-06 18:29 50.45040 12.90591 34647 ft 487 kts
2026-05-06 18:29 50.48387 12.91527 34846 ft 490 kts 11°
2026-05-06 18:29 50.51670 12.93038 35029 ft 492 kts 14°
2026-05-06 18:29 50.54951 12.94609 35217 ft 492 kts 14°
2026-05-06 18:30 50.58224 12.96171 35416 ft 492 kts 14°
2026-05-06 18:30 50.61505 12.97736 35625 ft 492 kts 14°
2026-05-06 18:30 50.64783 12.99306 35861 ft 491 kts 14°
2026-05-06 18:30 50.68052 13.00874 36053 ft 491 kts 14°
2026-05-06 18:31 50.71319 13.02444 36249 ft 491 kts 14°
2026-05-06 18:31 50.74541 13.03993 36427 ft 491 kts 14°
2026-05-06 18:31 50.77808 13.05565 36597 ft 491 kts 14°
2026-05-06 18:31 50.81074 13.07137 36748 ft 491 kts 14°
2026-05-06 18:32 50.87621 13.10284 36772 ft 491 kts 14°
2026-05-06 18:32 50.94165 13.13452 36780 ft 491 kts 14°
2026-05-06 18:33 51.00663 13.16611 36777 ft 491 kts 14°
2026-05-06 18:33 51.07200 13.19795 36789 ft 491 kts 14°
2026-05-06 18:34 51.13731 13.22979 36782 ft 491 kts 14°
2026-05-06 18:34 51.20264 13.26183 36787 ft 492 kts 14°
2026-05-06 18:35 51.26814 13.29411 36789 ft 492 kts 14°
2026-05-06 18:35 51.33364 13.32633 36807 ft 492 kts 14°
2026-05-06 18:36 51.39881 13.35845 36805 ft 492 kts 14°
2026-05-06 18:36 51.46429 13.39093 36810 ft 492 kts 14°
2026-05-06 18:37 51.52978 13.42347 36826 ft 492 kts 15°
2026-05-06 18:37 51.59529 13.45614 36826 ft 492 kts 14°
2026-05-06 18:38 51.66075 13.48881 36829 ft 492 kts 15°
2026-05-06 18:38 51.72568 13.52142 36832 ft 492 kts 15°
2026-05-06 18:39 51.79109 13.55446 36840 ft 492 kts 15°
2026-05-06 18:40 51.88917 13.60433 36828 ft 492 kts 15°
2026-05-06 18:40 51.95407 13.64028 36835 ft 493 kts 17°
2026-05-06 18:41 52.01870 13.67777 36847 ft 493 kts 17°
2026-05-06 18:41 52.08304 13.71477 36851 ft 493 kts 17°
2026-05-06 18:42 52.14789 13.75153 36848 ft 493 kts 17°
2026-05-06 18:42 52.21275 13.78823 36865 ft 493 kts 17°
2026-05-06 18:43 52.27764 13.82511 36860 ft 493 kts 17°
2026-05-06 18:43 52.34187 13.86199 36859 ft 493 kts 17°
2026-05-06 18:44 52.40663 13.89921 36862 ft 492 kts 17°
2026-05-06 18:44 52.47127 13.93628 36874 ft 492 kts 17°
2026-05-06 18:45 52.53581 13.97363 36881 ft 491 kts 17°
2026-05-06 18:45 52.60028 14.01115 36878 ft 491 kts 17°
2026-05-06 18:46 52.66469 14.04851 36874 ft 490 kts 17°
2026-05-06 18:46 52.72866 14.08580 36875 ft 490 kts 17°
2026-05-06 18:47 52.79299 14.12349 36873 ft 490 kts 17°
2026-05-06 18:47 52.85724 14.16130 36876 ft 490 kts 17°
2026-05-06 18:48 52.92153 14.19921 36893 ft 490 kts 17°
2026-05-06 18:48 52.98583 14.23721 36888 ft 490 kts 17°
2026-05-06 18:49 53.04968 14.27499 36883 ft 490 kts 17°
2026-05-06 18:49 53.11400 14.31309 36888 ft 490 kts 17°
2026-05-06 18:50 53.17825 14.35137 36895 ft 490 kts 17°
2026-05-06 18:50 53.24252 14.38985 36893 ft 490 kts 17°
2026-05-06 18:51 53.30610 14.42958 36898 ft 491 kts 20°
2026-05-06 18:51 53.36879 14.47523 36920 ft 492 kts 22°
2026-05-06 18:52 53.43110 14.52308 36909 ft 492 kts 22°
2026-05-06 18:52 53.49360 14.56997 36898 ft 492 kts 21°
2026-05-06 18:53 53.55629 14.61590 36894 ft 491 kts 21°
2026-05-06 18:53 53.61866 14.66166 36906 ft 491 kts 21°
2026-05-06 18:54 53.68125 14.70795 36899 ft 491 kts 21°
2026-05-06 18:54 53.74345 14.75444 36887 ft 491 kts 21°
2026-05-06 18:55 53.80591 14.80116 36896 ft 491 kts 21°
2026-05-06 18:55 53.86855 14.84812 36915 ft 491 kts 21°
2026-05-06 18:56 53.92865 14.89324 36920 ft 491 kts 21°
2026-05-06 18:56 53.99111 14.94035 36927 ft 490 kts 21°
2026-05-06 18:57 54.05301 14.98725 36922 ft 490 kts 21°
2026-05-06 18:57 54.10300 15.02440 36929 ft 489 kts 19°
2026-05-06 18:58 54.16670 15.06504 36936 ft 488 kts 16°
2026-05-06 18:58 54.23097 15.10266 36933 ft 488 kts 16°
2026-05-06 18:59 54.29504 15.14149 36938 ft 488 kts 17°
2026-05-06 18:59 54.34798 15.17510 36958 ft 488 kts 17°